Regional Weather Roundup
Issued by NWS Northern Indiana

Home | Current Version | Previous Version | Text Only | Print | Product List | Glossary Off
Versions: 1 2 3 4 5 6 7 8 9 10 11 12 13 14 15 16 17 18 19 20 21 22 23 24 25 26 27 28 29 30 31 32 33 34 35 36 37 38 39 40 41 42 43 44 45 46 47 48 49 50

000
ASUS43 KIWX 050600
RWRIWX

KIWX WEATHER ROUNDUP
NATIONAL WEATHER SERVICE NORTHERN INDIANA
200 AM EDT TUE MAY 05 2015

NOTE: "FAIR" INDICATES FEW OR NO CLOUDS BELOW 12,000 FEET WITH NO
SIGNIFICANT WEATHER AND/OR OBSTRUCTIONS TO VISIBILITY.

* THESE STATIONS ARE NOT UNDER NWS QUALITY CONTROL. THEY ALSO MAY NOT
  REPORT WEATHER SUCH AS PRECIPITATION OR FOG.

INZ001>027-050700-
NORTHERN INDIANA

CITY           SKY/WX    TMP DP  RH WIND       PRES   REMARKS
SOUTH BEND     MOCLDY    61  55  81 NE5       30.18F
6HR MIN TEMP:  59; 6HR MAX TEMP:  68;

GOSHEN         CLOUDY    59  57  93 CALM      30.18S FOG
6HR MIN TEMP:  57; 6HR MAX TEMP:  69;

ANGOLA*        CLOUDY    55  55 100 CALM      30.19F VSB 1/4
FORT WAYNE     CLOUDY    61  59  93 S3        30.20R FOG
6HR MIN TEMP:  60; 6HR MAX TEMP:  65; 6HR PCP:  0.01;

PERU/GRISSOM   MOCLDY    61  60  96 E3        30.17S
6HR MIN TEMP:  61; 6HR MAX TEMP:  65; 6HR PCP:  0.04;


$$
INZ028>050-050700-
CENTRAL INDIANA

CITY           SKY/WX    TMP DP  RH WIND       PRES   REMARKS
LAFAYETTE      CLOUDY    61  59  93 E5        30.15S
6HR MIN TEMP:  58; 6HR MAX TEMP:  63;

KOKOMO*        MOCLDY    61  59  94 CALM      30.18S
6HR MIN TEMP:  61; 6HR MAX TEMP:  64; 6HR PCP:  0.16;

MUNCIE*        HVY RAIN  62  59  90 SE3       30.19F FOG
6HR MIN TEMP:  62; 6HR MAX TEMP:  68; 6HR PCP:  1.26;

INDIANAPOLIS   CLOUDY    63  59  87 SE8       30.17S
6HR MIN TEMP:  63; 6HR MAX TEMP:  72;


$$
MIZ043>046-050>051-056>058-064>065-071>073-077>080-050700-
SOUTHWEST LOWER MICHIGAN

CITY           SKY/WX    TMP DP  RH WIND       PRES   REMARKS
BATTLE CREEK   CLEAR     56  51  84 NE7       30.21S
6HR MIN TEMP:  56; 6HR MAX TEMP:  69;

BENTON HARBOR  PTCLDY    50  48  93 NE3       30.18S
6HR MIN TEMP:  49; 6HR MAX TEMP:  60;

COLDWATER*     PTCLDY    54  53  97 CALM      30.20R
6HR MIN TEMP:  53; 6HR MAX TEMP:  68;

HILLSDALE*     CLEAR     57  56  95 CALM      30.20R
HOLLAND        PTCLDY    52  43  71 NE3       30.21S
6HR MIN TEMP:  49; 6HR MAX TEMP:  61;

GRAND RAPIDS   CLEAR     56  37  49 NE7       30.21F
6HR MIN TEMP:  56; 6HR MAX TEMP:  69;

KALAMAZOO      PTCLDY    59  51  75 N6        30.20S
6HR MIN TEMP:  56; 6HR MAX TEMP:  69;

STURGIS*       MOCLDY    55  54  94 CALM      30.18F
THREE RIVERS*  FAIR      54  52  92 CALM      30.19F
6HR MIN TEMP:  54; 6HR MAX TEMP:  67;


$$
OHZ001>008-015>018-024>025-050700-
NORTHWEST OHIO

CITY           SKY/WX    TMP DP  RH WIND       PRES   REMARKS
DEFIANCE       CLOUDY    61  58  90 CALM      30.20R FOG
6HR MIN TEMP:  61; 6HR MAX TEMP:  68;

FINDLAY        CLOUDY    61  58  90 S8        30.20R FOG
6HR MIN TEMP:  59; 6HR MAX TEMP:  66;

TOLEDO EXPRESS PTCLDY    60  59  96 SW5       30.18S FOG
6HR MIN TEMP:  60; 6HR MAX TEMP:  68;

TOLEDO METCALF PTCLDY    59  56  89 SW5       30.18F FOG
6HR MIN TEMP:  59; 6HR MAX TEMP:  70;

LIMA           CLOUDY    60  58  92 S6        30.21S FOG
6HR MIN TEMP:  60; 6HR MAX TEMP:  65;


$$
AND FOR LAKE MICHIGAN COASTAL AND OPEN LAKE BUOY OBSERVATIONS

STATION/POSITION TEMP    WIND        PRES    VSBY  WAVE
                 AIR SEA DIR/SP/G                  HT/PER
                 (F)     (DEG/KT/KT) (MB)    (MI)  (FT/S)
CALUMET HARBOR    50     360/  4/  5   N/A
MICHIGAN CITY     53      40/ 10/ 12   N/A
BURNS HARBOR      53      80/  7/ 10 1022.0S
SAINT JOSEPH      55      40/  1/  6 1022.4S
4 MI NW BRIDGMAN  55 50   70/  4/  4   N/A           0
MICHIGAN CITY     52 50   90/  4/  6   N/A           1

$$
&&



USA.gov is the U.S. government's official web portal to all federal, state and local government web resources and services.